Location: Goll?ig?dem
(16.6773°N, 80.7332°E)
Time: 06:59:46
(UTC+00:00)

Cosmos 1758 - Pass Details

Date: 21 April 2021
Orbit: 540 x 561 km, 82.5° (Epoch: 06 May)

Event Time Altitude Azimuth Distance (km) Brightness Sun altitude
Rises 23:03:30 0° 359° (N) 2,738 7.1 -17.8°
Reaches altitude 10° 23:05:41 10° 1° (N) 1,844 6.2 -17.3°
Maximum altitude 23:09:43 70° 85° (E) 596 3.6 -16.4°
Drops below altitude 10° 23:13:46 10° 169° (S) 1,842 5.9 -15.5°
Sets 23:15:56 0° 172° (S) 2,735 6.8 -15.0°
